Find MIMAN

NORAD ID: 52900 Int'l Des: 2022-065 Owner: YONS Country: KR operational
LEOCIRCULARRETROGRADESSO

当前视图

正在加载3D地球...

关于 MIMAN

正在加载描述...

即将过境

Passes for default location (London). Set your location on the main map for personalized predictions.

高度历史

Loading altitude history...

两行轨道根数

1 52900U 22065G 26146.35028605 .00000601 00000-0 12978-3 0 9996
2 52900 98.2232 288.9465 0008944 94.5856 265.6366 14.61815457207250
Epoch: May 26, 2026 • Age: 14 hours

当前状态

高度 721.9 km
速度 7.49 km/s
星下点 -81.54°S, 138.21°E
发射日期 Jun 21, 2022
运行时间 3.9 years
类型 other

技术详情

分类 Payload
质量 4.00 kg
干质量 4.00 kg
总质量 4.00 kg
长度 0.30 m
直径 0.10 m
跨度 0.30 m
形状 Box
制造商 YONS
平台类型 Cubesat 3U
阶段状态 In Orbit
所有者/国家 YONS/KR

Most Searched